| time (UTC) | temp C | wind direction | speed KPH | gust KPH | rain 1hr cm | rain 24hr cm | rain mn cm | humidity % | barometer mb |
| 20260504013005 | 7 | 229 | 0.0 | 0.0 | 0.00 | 0.00 | 0.00 | 69 | 1012.2 |
| 20260504011506 | 8 | 229 | 0.0 | 0.0 | 0.00 | 0.00 | 0.00 | 67 | 1012.2 |
| 20260504010018 | 8 | 229 | 0.0 | 0.0 | 0.00 | 0.00 | 0.00 | 64 | 1012.3 |
| 20260504004517 | 10 | 229 | 0.0 | 0.0 | 0.00 | 0.00 | 0.00 | 59 | 1012.2 |
| 20260504003004 | 11 | 134 | 0.0 | 0.0 | 0.00 | 0.00 | 0.00 | 57 | 1012.2 |
| 20260504001519 | 12 | 146 | 0.0 | 1.6 | 0.00 | 0.00 | 0.00 | 52 | 1012.2 |
| 20260504000017 | 13 | 303 | 0.0 | 1.6 | 0.00 | 0.00 | 0.00 | 50 | 1012.2 |
| 20260503234520 | 13 | 239 | 0.0 | 1.6 | 0.00 | 0.00 | 0.00 | 51 | 1012.3 |
| 20260503233018 | 13 | 215 | 0.0 | 8.0 | 0.00 | 0.00 | 0.00 | 48 | 1012.4 |
| 20260503231522 | 13 | 148 | 1.6 | 6.4 | 0.00 | 0.00 | 0.00 | 46 | 1012.4 |
| 20260503230008 | 14 | 79 | 1.6 | 6.4 | 0.00 | 0.00 | 0.00 | 46 | 1012.4 |
| 20260503224510 | 14 | 274 | 3.2 | 9.7 | 0.00 | 0.00 | 0.00 | 46 | 1012.5 |
| 20260503223013 | 14 | 247 | 1.6 | 11.3 | 0.00 | 0.00 | 0.00 | 44 | 1012.6 |
| 20260503221518 | 15 | 188 | 1.6 | 8.0 | 0.00 | 0.00 | 0.00 | 45 | 1012.7 |
| 20260503220024 | 15 | 227 | 0.0 | 11.3 | 0.00 | 0.00 | 0.00 | 44 | 1012.7 |
| 20260503214508 | 16 | 280 | 1.6 | 9.7 | 0.00 | 0.00 | 0.00 | 43 | 1012.7 |
| 20260503213011 | 15 | 248 | 0.0 | 9.7 | 0.00 | 0.00 | 0.00 | 45 | 1012.7 |
| 20260503211515 | 15 | 179 | 1.6 | 11.3 | 0.00 | 0.00 | 0.00 | 43 | 1012.7 |
| 20260503210021 | 16 | 284 | 1.6 | 11.3 | 0.00 | 0.00 | 0.00 | 45 | 1012.8 |
| 20260503204528 | 16 | 139 | 3.2 | 9.7 | 0.00 | 0.00 | 0.00 | 40 | 1012.7 |
| 20260503203006 | 16 | 184 | 1.6 | 9.7 | 0.00 | 0.00 | 0.00 | 46 | 1012.9 |
| 20260503201514 | 16 | 231 | 3.2 | 14.5 | 0.00 | 0.00 | 0.00 | 42 | 1013.0 |
| 20260503200018 | 16 | 184 | 3.2 | 11.3 | 0.00 | 0.00 | 0.00 | 40 | 1013.2 |
| 20260503194529 | 16 | 203 | 3.2 | 11.3 | 0.00 | 0.00 | 0.00 | 41 | 1013.5 |
| 20260503193027 | 16 | 220 | 1.6 | 6.4 | 0.00 | 0.00 | 0.00 | 41 | 1013.8 |
| 20260503191509 | 17 | 303 | 3.2 | 19.3 | 0.00 | 0.00 | 0.00 | 40 | 1013.9 |
| 20260503190035 | 17 | 114 | 3.2 | 11.3 | 0.00 | 0.00 | 0.00 | 41 | 1014.1 |
| 20260503184522 | 17 | 219 | 3.2 | 9.7 | 0.00 | 0.00 | 0.00 | 41 | 1014.4 |
| 20260503183025 | 17 | 347 | 3.2 | 6.4 | 0.00 | 0.00 | 0.00 | 45 | 1014.5 |
| 20260503181524 | 16 | 98 | 3.2 | 16.1 | 0.00 | 0.00 | 0.00 | 38 | 1014.6 |
| 20260503180038 | 17 | 266 | 3.2 | 9.7 | 0.00 | 0.00 | 0.00 | 41 | 1014.7 |
| 20260503174517 | 16 | 243 | 3.2 | 9.7 | 0.00 | 0.00 | 0.00 | 45 | 1015.0 |
| 20260503173028 | 16 | 136 | 3.2 | 9.7 | 0.00 | 0.00 | 0.00 | 47 | 1015.2 |
| 20260503171534 | 15 | 199 | 3.2 | 14.5 | 0.00 | 0.00 | 0.00 | 46 | 1015.5 |
| 20260503081535 | -1 | 248 | 0.0 | 0.0 | 0.00 | 0.00 | 0.00 | 91 | 1015.9 |
| 20260503071517 | 0 | 248 | 0.0 | 0.0 | 0.00 | 0.03 | 0.00 | 91 | 1015.9 |
| 20260503054525 | 1 | 248 | 0.0 | 0.0 | 0.00 | 0.03 | 0.00 | 86 | 1016.2 |
| 20260503053024 | 2 | 248 | 0.0 | 0.0 | 0.00 | 0.03 | 0.00 | 87 | 1016.1 |
| 20260503051510 | 2 | 248 | 0.0 | 0.0 | 0.00 | 0.03 | 0.00 | 87 | 1016.1 |
| 20260503050011 | 2 | 248 | 0.0 | 0.0 | 0.00 | 0.03 | 0.00 | 87 | 1016.3 |
| 20260503044517 | 2 | 248 | 0.0 | 0.0 | 0.00 | 0.03 | 0.00 | 87 | 1016.2 |
| 20260503043021 | 2 | 248 | 0.0 | 0.0 | 0.00 | 0.03 | 0.00 | 87 | 1016.3 |
| 20260503040008 | 2 | 248 | 0.0 | 0.0 | 0.00 | 0.03 | 0.00 | 87 | 1016.5 |
| 20260503034512 | 2 | 248 | 0.0 | 0.0 | 0.00 | 0.03 | 0.03 | 87 | 1016.5 |
| 20260503033025 | 2 | 248 | 0.0 | 0.0 | 0.00 | 0.03 | 0.03 | 87 | 1016.5 |
| 20260503031528 | 2 | 248 | 0.0 | 0.0 | 0.00 | 0.03 | 0.03 | 86 | 1016.6 |
| 20260503030026 | 2 | 248 | 0.0 | 0.0 | 0.00 | 0.03 | 0.03 | 85 | 1016.6 |
| 20260503024528 | 2 | 248 | 0.0 | 0.0 | 0.00 | 0.03 | 0.03 | 85 | 1016.7 |
| 20260503021525 | 2 | 248 | 0.0 | 0.0 | 0.00 | 0.03 | 0.03 | 83 | 1016.8 |
| 20260503020024 | 2 | 248 | 0.0 | 0.0 | 0.00 | 0.03 | 0.03 | 83 | 1016.7 |